Wind_Speed
12 12 12 11 11 11 12 13 15 16 17 18 19 20 21 21 21 23 24 24 24 24 22 20 20 21 24 25 25 27 32 33 32 33 33 35 37 38 42 42 41 42 40 38 37 37 34 27 25 30 31 27 26 29 29 27 27 28 30 31 29 26 27 29 31 30 26 26 29 27 24 25 29 29 25 24 27 27 26 26 24 23 25 24 24 26 26
10 10 10 10 10 10 12 13 15 16 17 19 20 21 22 22 22 23 24 25 25 24 22 19 19 22 24 23 21 22 25 29 33 34 32 33 36 39 42 41 41 42 43 41 40 39 37 32 28 30 32 30 28 27 28 29 29 31 33 32 29 26 27 28 29 31 28 25 26 26 25 26 26 26 26 26 27 27 27 27 25 25 27 26 25 26 26
8 8 8 9 9 10 12 13 15 16 18 19 20 21 23 24 25 25 25 26 26 24 23 21 21 23 24 23 21 21 22 25 30 34 33 34 36 38 39 40 42 43 43 42 41 41 39 35 31 29 28 31 30 23 24 29 30 31 31 31 31 31 30 29 29 32 30 26 25 25 27 28 26 26 27 27 27 28 29 29 28 28 27 26 27 27 27
6 6 7 8 10 11 13 14 15 16 18 20 21 23 24 25 27 27 26 26 23 20 19 18 20 23 23 22 22 21 21 23 26 30 33 35 37 37 35 35 39 42 42 41 41 40 39 37 35 31 27 30 31 23 22 27 29 27 26 27 29 32 33 34 34 35 34 32 32 31 30 27 26 28 29 27 27 29 30 29 30 30 28 27 28 28 28
4 5 7 8 10 12 13 14 15 17 19 20 22 24 25 26 28 29 26 22 15 10 8 8 11 16 19 20 20 20 21 22 23 27 31 33 35 37 34 31 33 38 40 40 39 39 39 38 38 34 29 29 30 26 24 26 27 26 26 25 25 27 29 32 34 36 36 36 36 35 33 29 29 32 31 29 28 29 31 31 31 32 31 29 29 30 31
4 5 7 8 10 12 12 14 15 17 19 21 23 24 25 28 29 27 24 15 6 3 5 4 4 8 13 16 16 17 19 21 22 26 31 33 33 32 33 32 31 34 37 38 39 39 38 38 38 37 33 31 30 28 27 26 26 26 26 25 24 25 25 27 29 32 35 36 36 36 34 33 35 36 32 29 29 29 31 33 32 33 33 33 33 32 30
4 6 7 9 10 11 12 14 16 18 20 21 23 24 26 28 28 24 20 11 3 3 7 6 4 4 7 11 13 15 17 20 22 24 28 33 32 28 26 28 31 32 33 36 38 38 37 36 35 36 36 34 31 31 30 28 27 27 27 25 25 25 26 25 26 27 29 30 32 36 38 39 39 37 33 31 31 30 31 32 32 33 35 36 36 34 31
5 6 7 8 9 10 12 14 16 18 20 21 23 25 26 27 27 22 17 11 4 1 4 9 6 3 7 9 11 13 15 17 20 22 24 27 30 28 22 23 28 30 31 34 36 37 37 35 32 33 34 33 31 33 32 28 27 28 27 26 24 24 25 25 25 26 27 27 27 31 36 40 42 40 36 34 34 33 32 32 32 34 36 37 37 37 36
5 6 7 8 9 10 12 14 16 18 19 21 23 25 25 26 26 24 18 13 8 2 3 8 9 2 5 7 9 10 11 14 16 19 21 21 24 26 23 21 26 29 30 30 31 32 34 34 32 33 34 33 33 33 31 28 28 28 28 27 25 24 23 24 25 25 25 25 26 27 29 33 38 41 39 37 36 36 35 34 34 35 36 37 38 38 38
5 6 7 7 9 10 12 15 16 18 19 21 23 24 24 24 26 26 21 16 12 7 4 7 8 5 1 5 7 7 8 11 12 15 18 18 18 21 22 23 25 27 28 28 27 28 29 30 30 31 32 33 33 33 31 30 30 29 30 29 27 25 24 23 24 24 24 24 26 26 25 25 29 33 35 36 37 37 38 38 37 36 37 38 39 38 37
5 6 6 7 9 11 13 15 17 18 19 21 22 23 24 24 24 26 24 21 17 12 8 7 8 9 7 4 7 8 8 9 11 12 14 15 16 17 19 22 24 25 27 27 27 27 27 27 28 29 30 31 32 32 32 32 31 30 31 30 29 28 26 24 23 23 23 24 25 26 25 24 24 23 25 28 31 33 36 39 40 40 39 39 39 39 38
4 5 6 7 9 11 13 15 16 18 19 20 21 22 22 23 23 24 24 24 22 18 13 8 6 9 11 8 5 7 10 10 10 11 12 14 16 16 17 20 22 24 25 26 27 27 26 27 27 27 28 29 30 31 32 31 31 30 30 30 29 28 26 25 25 24 24 25 27 27 26 25 24 22 22 23 26 27 28 33 38 41 42 43 43 42 40
4 5 6 8 9 11 13 14 16 17 18 19 20 21 21 21 23 23 23 23 23 22 19 14 10 8 9 10 10 7 7 8 10 11 12 13 14 15 17 18 20 22 23 24 25 26 26 26 26 26 26 28 29 30 30 30 29 29 29 29 28 28 27 27 26 26 25 25 26 26 25 24 23 23 24 25 25 24 24 26 29 32 36 39 42 43 43
3 5 6 8 9 11 13 14 15 16 17 18 19 20 20 20 21 22 22 21 21 22 21 19 16 12 9 8 8 8 7 6 6 8 11 12 12 14 16 17 18 20 21 22 23 24 24 24 24 24 25 26 27 28 29 30 30 30 30 28 27 27 27 26 25 25 26 24 24 24 24 23 23 24 25 26 25 25 26 26 25 26 28 31 33 36 39
3 4 6 8 10 11 13 14 15 16 17 18 19 19 20 20 20 20 20 19 19 20 20 19 18 17 14 10 6 5 5 6 5 5 6 7 8 10 13 16 18 18 19 21 22 22 23 23 23 23 24 25 26 27 29 31 32 32 31 30 29 28 27 26 24 25 26 26 26 26 26 26 25 24 25 26 26 26 28 28 28 28 28 28 29 30 33
3 4 6 8 10 11 12 13 15 16 17 18 19 19 19 19 19 18 18 17 18 19 18 17 17 16 15 14 11 8 5 3 2 2 3 4 4 5 7 12 15 16 16 18 20 21 22 24 23 23 24 26 26 27 29 31 32 32 31 31 32 31 31 30 27 26 26 26 26 27 28 27 27 25 24 25 26 26 27 29 30 31 31 31 30 31 32
3 4 6 8 10 11 12 13 14 16 17 17 18 18 19 19 18 17 16 16 17 17 16 16 15 15 14 13 12 11 9 7 4 2 0 3 5 5 6 9 12 13 14 15 17 18 20 23 24 24 25 26 26 26 27 29 30 29 30 31 32 33 34 33 31 30 30 28 27 27 28 28 28 25 23 24 26 26 27 29 30 30 31 32 32 32 33
3 5 6 8 9 11 12 13 14 15 16 17 17 17 18 18 18 18 17 16 16 15 14 14 13 13 13 12 12 11 10 8 7 5 3 2 3 4 6 8 11 13 14 15 15 16 17 19 20 22 23 24 25 25 26 26 26 26 27 28 29 31 33 33 32 32 33 32 30 30 31 32 31 27 25 25 26 27 27 29 30 29 30 31 32 33 34
3 4 6 7 9 11 12 13 14 15 15 16 16 17 17 17 17 17 17 17 16 15 14 13 12 12 11 10 10 10 9 8 7 6 5 4 3 3 3 5 8 11 13 15 17 18 18 19 20 21 21 21 24 27 27 27 26 26 27 26 26 28 30 31 31 32 32 32 32 32 33 34 33 31 30 28 28 29 31 31 31 30 31 32 32 32 33
3 4 6 7 8 10 12 13 14 15 15 16 16 17 17 17 17 17 17 16 16 14 14 13 12 11 10 9 8 8 8 7 6 6 5 5 4 4 3 3 4 6 9 12 14 17 19 21 22 23 22 23 24 25 26 28 28 29 29 28 28 29 30 28 29 31 31 31 33 35 35 34 33 33 33 32 31 32 32 32 32 33 34 34 34 34 35
3 4 6 7 9 10 12 13 14 15 15 16 16 17 16 16 16 16 16 15 15 14 14 14 13 12 11 9 8 7 7 6 6 5 5 5 4 4 4 4 4 5 6 8 10 12 15 17 18 20 22 25 26 26 25 27 28 29 31 31 30 30 31 29 29 30 31 32 33 35 35 35 35 34 35 34 34 34 33 33 34 36 37 37 37 39 40
3 4 5 7 9 10 11 13 14 15 15 15 16 16 16 16 16 16 16 15 15 15 15 14 13 13 12 10 8 7 6 6 5 5 5 5 5 5 4 4 4 4 5 6 8 9 11 13 14 15 18 20 22 22 23 25 26 26 28 32 33 33 33 33 32 33 34 34 34 34 34 35 36 36 37 38 37 37 36 36 36 37 39 40 40 41 41
3 4 6 7 9 10 11 12 13 14 14 15 15 16 16 16 17 16 16 16 15 14 14 14 13 12 11 10 8 7 6 5 5 5 5 5 5 5 5 5 5 5 5 6 7 7 9 10 12 13 15 17 18 18 19 22 23 22 23 27 30 32 34 34 34 35 38 39 39 38 38 38 38 38 38 39 38 38 38 39 38 38 38 39 40 40 40
4 5 6 8 9 10 11 12 13 13 14 14 15 16 16 17 17 17 16 15 15 14 13 13 12 11 10 10 9 8 6 5 5 5 5 5 5 5 5 5 5 5 5 6 7 7 8 8 9 10 12 14 15 15 16 18 19 20 21 21 22 25 29 29 28 30 34 37 39 41 41 42 42 42 41 41 41 40 40 40 41 41 42 42 42 43 43
4 5 6 8 9 11 12 13 13 14 14 15 15 16 16 17 17 17 16 16 15 15 14 14 13 12 11 10 10 8 7 5 5 5 5 5 5 5 5 5 5 5 5 6 6 7 7 8 9 9 10 12 12 13 14 15 16 17 17 17 18 21 22 21 20 23 27 30 34 37 39 41 43 44 44 44 44 43 43 43 43 44 46 48 48 49 49
5 6 7 8 9 11 12 13 14 15 15 15 16 16 17 17 17 17 17 17 16 15 15 15 14 13 12 11 10 9 7 6 5 5 5 5 5 5 5 5 5 5 5 6 6 7 7 8 8 9 10 12 12 12 12 14 15 15 15 16 18 18 17 15 16 18 22 25 28 31 34 36 38 40 42 42 43 43 44 44 44 45 46 47 47 48 48
6 6 7 9 10 11 12 14 15 15 15 15 16 16 17 17 17 17 17 17 17 16 15 15 13 13 12 11 9 8 8 7 6 6 6 6 6 6 5 5 5 5 5 6 6 7 8 8 9 10 10 11 12 12 13 14 14 14 15 16 16 15 14 13 13 15 17 20 23 25 27 29 32 35 37 38 40 40 40 41 42 42 43 43 43 43 43
7 7 8 9 11 11 13 14 15 15 15 15 16 17 17 17 17 17 17 17 17 17 16 15 13 13 12 10 9 8 7 7 7 7 7 7 7 7 6 6 5 5 5 6 6 7 8 9 9 10 11 11 12 13 13 14 14 14 15 15 15 15 15 14 14 15 17 18 19 20 21 23 26 29 30 32 33 35 36 37 37 38 38 38 39 39 40
8 9 10 10 11 12 13 14 14 15 15 15 16 17 17 17 17 17 17 17 17 17 16 15 13 12 11 10 9 8 7 7 7 7 7 8 8 8 7 7 7 6 6 6 7 7 8 9 10 10 11 11 12 12 13 14 15 15 15 15 15 15 16 16 17 18 19 20 20 19 19 21 22 23 24 25 27 29 31 32 33 33 34 34 34 35 36
9 10 11 11 11 13 14 14 15 15 15 16 16 17 17 17 17 17 17 17 17 17 16 14 13 12 11 10 9 8 7 7 7 7 7 8 8 8 8 8 8 7 7 7 7 7 8 9 10 11 11 12 12 13 13 14 15 15 15 15 15 15 16 18 19 20 20 21 21 20 20 21 22 21 22 23 23 24 25 26 27 28 29 30 31 31 32
11 11 12 12 12 13 14 15 15 15 16 16 17 17 17 17 17 17 17 17 17 17 16 14 12 11 11 10 9 8 7 7 7 7 8 8 8 8 9 9 8 8 8 7 7 8 8 9 9 11 12 12 13 13 13 14 15 15 14 15 15 16 17 18 19 20 21 21 22 21 22 22 23 23 24 23 22 23 23 24 24 25 25 26 27 27 28
12 12 12 12 12 13 14 14 15 15 16 17 17 18 18 17 17 17 17 16 16 16 15 13 12 11 10 9 8 8 7 7 7 8 8 9 9 9 9 9 8 8 9 8 8 9 9 9 10 11 11 12 13 14 14 15 15 15 15 15 16 16 17 17 18 19 20 20 21 21 22 22 23 24 24 23 23 24 24 24 25 25 25 26 26 26 27
13 13 13 13 13 13 14 14 15 15 16 17 18 18 18 18 18 17 17 16 16 15 14 13 12 11 10 9 8 7 7 7 8 8 9 10 10 10 10 9 9 9 9 9 10 10 11 11 11 11 12 13 14 14 15 16 16 15 15 15 15 15 16 17 18 18 19 19 20 21 21 21 22 22 23 23 23 24 24 25 25 25 25 26 26 26 27
13 13 13 13 13 13 14 14 15 15 16 17 18 18 17 18 18 17 16 16 15 14 14 13 12 11 10 9 7 7 7 8 8 9 9 10 11 11 10 10 10 10 10 11 11 12 12 12 12 12 13 14 14 15 15 16 16 16 16 15 15 15 15 16 17 18 18 18 19 20 20 20 21 21 22 22 22 22 23 23 24 24 24 25 25 25 26
13 14 14 13 13 13 14 14 15 15 16 17 18 17 17 18 18 16 16 16 15 14 13 13 12 11 10 9 7 7 7 8 9 9 10 11 11 12 11 11 11 11 11 12 13 13 13 13 14 15 15 14 14 16 16 16 16 16 16 16 15 15 15 15 16 17 17 18 19 19 19 20 20 20 21 21 21 21 22 22 22 23 23 23 24 24 25
13 14 14 14 13 13 13 14 15 15 16 17 17 17 17 18 17 16 15 15 15 14 13 12 12 11 10 9 8 7 7 8 8 9 10 11 11 12 12 12 11 11 12 13 14 14 14 15 17 17 16 16 16 17 17 17 17 16 16 16 16 15 15 15 16 16 17 17 18 18 19 19 20 20 20 21 21 21 21 21 22 22 22 22 22 23 23
14 14 14 13 13 13 13 14 14 15 16 17 17 17 17 18 17 16 15 14 14 13 13 12 12 11 10 9 8 8 8 8 9 10 11 11 12 12 12 12 12 13 13 13 14 15 16 17 18 18 18 19 19 19 19 18 18 17 16 16 16 16 16 17 17 17 17 17 17 18 18 18 19 19 20 20 20 21 21 21 21 21 21 21 21 21 22
14 14 14 13 13 13 13 14 14 15 16 17 17 16 17 17 17 16 15 14 13 13 12 12 11 10 9 9 9 8 9 9 9 10 11 12 12 13 13 13 14 14 15 15 16 17 18 19 19 20 20 21 21 20 20 19 19 18 17 16 16 16 17 17 17 17 17 17 17 17 17 17 18 19 19 20 20 20 20 20 20 20 21 21 21 21 20
15 15 14 14 13 13 13 14 15 15 16 17 16 16 17 17 17 16 15 14 13 13 12 12 11 10 9 9 9 9 9 10 10 11 12 13 13 14 14 15 15 16 17 18 18 19 21 21 22 22 23 23 22 20 21 20 20 19 18 17 16 17 17 18 18 17 17 17 17 17 17 17 18 18 19 19 19 20 20 20 20 20 20 20 20 20 19
15 15 14 14 13 13 14 14 15 16 16 16 16 16 16 17 17 16 15 14 13 13 13 12 11 10 9 9 9 9 10 10 11 12 13 14 14 15 15 16 16 17 19 20 21 22 23 24 24 24 25 26 24 22 22 22 21 20 19 18 17 17 18 18 18 17 16 16 17 18 18 18 18 18 18 18 19 19 19 20 20 19 19 19 19 18 18
16 15 14 14 14 13 14 14 15 16 17 16 16 16 16 17 16 16 15 14 14 13 13 13 11 10 10 9 9 9 10 11 12 13 13 14 14 15 16 16 17 19 20 22 24 25 26 27 26 26 27 28 26 24 24 23 21 20 21 20 19 18 18 18 17 16 16 17 18 18 18 18 18 18 18 18 18 18 19 19 19 18 19 18 18 17 16
16 15 15 14 14 14 14 15 15 16 16 16 15 16 16 17 16 15 15 14 14 14 13 13 12 11 10 10 10 10 10 11 12 13 14 14 15 16 17 17 19 21 23 25 27 29 30 30 28 26 27 27 26 24 25 24 22 21 21 20 19 19 19 18 17 16 16 17 18 18 18 18 18 18 18 18 18 18 18 18 18 18 18 17 17 16 15
16 15 15 14 14 14 14 15 16 16 16 15 15 16 17 17 16 16 15 14 14 14 13 12 11 11 10 10 10 10 11 12 13 13 14 15 16 17 18 20 21 23 26 29 31 32 32 31 28 26 27 27 26 25 26 25 23 21 21 20 19 19 18 18 17 17 16 17 18 19 19 18 18 18 18 18 18 18 18 18 18 17 17 17 16 15 14
16 15 15 14 14 14 15 15 16 16 16 15 16 16 17 16 16 16 15 14 14 14 13 11 11 10 10 11 11 11 12 13 14 15 16 16 17 19 20 22 25 27 30 32 34 33 31 30 29 27 27 27 26 25 26 25 23 21 20 20 19 19 18 17 17 17 17 17 18 19 19 19 18 18 18 18 18 18 17 17 17 17 17 16 15 14 14
16 15 15 14 14 14 15 16 16 16 16 15 16 16 17 16 16 15 15 14 14 14 13 11 11 11 11 11 12 13 13 14 14 16 17 18 19 21 23 25 28 32 33 34 35 33 30 29 29 28 26 25 25 24 24 24 23 21 21 20 19 19 18 17 17 17 17 17 17 18 19 19 18 18 17 17 18 17 17 17 17 17 16 15 14 14 14
16 15 15 15 14 15 16 17 17 16 15 15 15 16 17 16 16 16 15 14 14 14 13 12 11 11 12 12 13 13 14 15 16 17 19 20 22 24 25 28 32 35 35 35 35 33 29 27 26 25 24 24 24 23 23 24 23 21 20 20 19 18 18 17 16 16 16 16 17 18 19 19 18 17 17 17 17 16 16 16 17 16 16 15 14 14 15
16 16 16 15 15 16 17 17 17 16 15 14 15 16 16 17 17 16 15 14 14 14 13 12 12 12 12 13 14 13 14 15 16 18 20 23 24 26 27 30 34 37 38 37 35 31 28 25 24 23 23 24 24 22 22 23 22 20 20 19 17 16 16 16 16 16 17 17 17 17 18 18 18 17 17 16 16 15 15 16 16 16 16 15 14 14 15
16 16 16 16 16 17 17 17 17 15 14 14 15 15 16 17 17 16 15 14 14 14 13 12 12 12 12 14 14 14 15 16 18 20 22 24 26 28 30 32 35 38 39 36 32 28 27 26 25 23 23 23 23 22 21 21 20 19 18 17 16 15 14 15 16 16 17 17 17 17 17 17 17 17 17 16 16 15 15 16 16 16 16 15 14 14 15
16 16 17 17 18 18 18 17 16 15 14 15 15 16 16 17 17 17 16 15 15 14 14 14 14 13 13 14 15 15 16 18 19 21 23 25 27 29 32 35 37 39 40 37 32 28 28 28 26 23 22 22 23 22 21 19 18 18 17 16 15 15 15 16 16 16 16 16 16 17 17 17 17 17 17 16 16 15 15 16 16 16 16 15 15 14 15
17 17 17 18 18 18 18 17 17 15 15 15 16 17 17 17 16 16 16 16 16 15 15 15 15 15 15 15 16 16 17 19 20 22 24 26 28 30 34 37 39 39 39 38 34 31 29 29 27 24 22 22 22 22 21 19 18 17 16 16 15 15 15 16 16 16 17 17 16 16 17 17 17 17 16 16 16 15 15 15 16 16 16 16 15 15 14
17 17 17 18 19 18 18 17 17 16 16 16 17 17 17 17 16 15 16 16 16 16 16 16 16 16 16 16 17 18 18 20 21 23 25 27 29 32 35 39 40 39 37 36 34 32 30 29 28 25 23 22 22 22 21 19 18 16 16 15 15 15 15 16 16 16 17 17 16 15 16 17 17 17 17 16 16 16 16 16 16 16 17 17 16 16 15
17 18 18 18 18 18 18 18 17 17 17 17 17 18 18 17 16 15 15 16 16 16 16 16 16 16 16 17 18 19 19 21 22 24 26 28 31 33 36 39 41 41 38 35 33 32 31 29 28 26 24 22 21 21 20 19 17 16 15 14 14 15 15 15 16 16 17 16 15 15 15 16 16 17 17 17 16 16 16 16 16 16 17 18 18 17 17
Wind_Direction
312 313 313 313 315 316 319 322 324 326 327 326 326 325 324 321 316 312 309 306 302 297 289 279 266 256 253 253 252 248 244 239 230 229 233 232 229 228 225 224 222 220 220 219 217 217 216 215 221 223 218 214 222 229 225 224 227 226 227 229 226 224 225 221 220 225 227 227 229 230 228 226 228 230 228 225 226 227 229 231 230 234 237 231 226 231 235
318 317 315 318 323 327 329 332 332 332 332 331 332 332 330 328 323 319 315 310 306 297 287 273 258 251 247 244 244 244 242 238 229 223 225 227 227 229 228 225 222 222 222 219 217 220 219 215 221 226 222 221 229 233 227 224 228 229 229 232 231 228 227 225 223 224 226 231 235 236 232 231 233 234 230 228 225 223 226 230 229 229 231 230 231 233 235
323 319 321 327 333 337 339 340 338 337 337 337 338 337 336 334 330 325 319 312 306 295 285 270 251 245 244 240 239 239 240 238 229 223 221 222 224 227 228 224 223 223 223 220 220 222 221 218 222 226 226 228 232 231 224 223 228 231 231 231 231 231 231 230 228 226 223 222 225 229 232 234 235 235 234 232 229 226 227 228 229 233 235 236 238 236 235
329 325 332 336 341 346 347 346 344 343 344 343 343 343 341 339 335 330 324 316 308 297 284 267 247 241 240 240 242 241 238 236 230 223 220 220 221 224 226 223 222 222 222 221 221 223 223 222 223 225 229 237 239 236 232 230 231 234 234 232 232 234 235 234 234 233 231 228 227 227 228 228 229 233 236 236 231 229 230 231 232 235 238 240 243 242 238
339 338 344 346 349 353 353 353 353 353 353 351 350 349 347 344 341 337 331 323 312 305 295 265 247 243 239 238 241 241 236 233 229 221 216 217 220 221 222 221 220 220 220 220 220 222 223 224 225 224 229 239 241 239 237 234 234 238 240 238 235 235 237 238 238 238 238 237 235 231 226 222 224 231 234 234 232 231 232 234 234 234 235 237 240 242 242
354 352 354 357 359 360 0 2 2 1 1 358 356 354 352 351 348 345 344 340 326 348 2 339 285 258 238 232 234 236 234 229 225 220 216 215 217 218 219 218 217 217 217 217 219 221 222 224 225 223 227 235 237 237 239 238 238 241 242 240 240 241 242 243 242 240 240 240 239 235 231 227 228 233 234 233 234 235 236 237 237 237 237 239 241 242 242
5 2 4 8 9 9 9 9 7 5 5 2 0 359 358 358 358 357 2 14 62 36 11 358 322 256 223 224 229 233 232 225 221 219 216 215 214 214 215 215 214 214 214 215 217 219 220 222 223 224 228 233 236 238 240 240 242 245 245 245 245 245 246 248 247 245 242 240 241 240 238 236 234 234 234 233 234 234 235 238 240 240 240 241 244 244 244
10 11 17 18 18 17 15 11 8 7 5 4 4 5 4 5 8 11 17 32 59 64 20 15 356 264 227 228 228 231 230 223 219 218 215 214 213 211 210 210 211 211 211 214 217 218 220 222 222 225 230 233 235 238 239 240 244 248 249 249 249 249 250 251 250 250 247 243 243 242 240 239 237 235 232 230 232 235 236 238 238 239 240 242 244 246 247
16 22 26 26 22 20 15 11 8 6 5 6 8 9 9 10 16 21 27 34 32 352 325 5 5 313 237 232 222 222 224 218 217 216 212 210 210 210 209 209 210 210 210 214 217 219 222 225 226 229 233 235 236 239 241 242 246 249 250 251 251 250 251 252 251 251 249 248 248 247 244 240 238 237 235 231 230 233 235 237 238 239 240 241 243 245 246
26 31 31 27 22 17 12 10 8 7 7 8 10 12 12 14 20 26 31 37 38 29 16 22 31 49 143 213 204 201 204 203 206 207 206 207 209 209 210 212 211 211 212 214 216 219 222 225 228 231 234 236 238 240 242 243 245 248 248 249 249 248 247 250 253 253 251 249 248 246 245 243 240 240 240 237 236 236 234 234 237 239 240 241 242 243 244
33 34 29 23 18 12 9 9 9 9 10 11 12 13 14 16 22 27 31 36 40 40 43 47 50 57 73 140 184 190 188 188 194 196 195 202 208 208 211 214 215 214 214 217 219 222 225 227 229 231 234 237 239 240 242 243 243 246 247 247 247 248 248 248 252 255 253 251 249 247 245 244 242 242 242 241 240 240 237 234 236 239 240 241 242 243 244
36 31 24 18 13 10 11 11 11 12 13 14 15 15 15 18 23 27 30 34 39 41 44 51 59 64 70 80 122 180 189 187 187 187 187 197 205 207 209 213 215 214 215 217 220 222 225 228 229 231 234 236 238 240 241 242 242 244 246 247 246 248 249 250 251 255 257 256 255 253 250 248 245 244 247 244 241 241 240 238 238 239 239 240 242 243 243
34 26 18 13 10 11 13 14 14 14 14 16 17 17 18 20 23 26 28 32 37 41 42 45 52 63 69 70 76 104 156 176 180 184 191 198 201 203 206 209 212 214 214 215 217 219 222 225 228 230 233 236 238 240 241 241 241 242 243 245 246 248 250 251 251 254 258 256 252 252 253 253 250 247 247 246 244 243 242 240 240 240 240 241 242 243 243
35 22 15 10 9 12 14 15 15 16 16 18 19 19 20 23 24 26 27 28 33 37 39 42 45 49 57 69 78 85 96 115 142 173 194 202 203 203 204 204 207 212 214 214 216 218 221 224 227 229 231 234 237 239 241 240 240 241 242 243 243 245 248 250 251 251 250 246 245 251 254 253 251 250 249 247 246 246 245 243 242 242 241 240 241 242 242
36 19 9 7 7 10 13 14 15 17 17 19 21 21 22 25 26 27 27 26 30 34 35 37 41 44 46 48 55 70 82 91 102 132 170 190 199 205 209 211 211 210 212 213 214 216 219 223 225 228 232 235 236 238 243 243 240 239 240 241 241 241 243 245 244 244 244 244 246 253 256 253 250 250 252 251 249 248 247 246 245 245 244 243 241 240 239
22 8 3 3 5 8 11 13 15 17 18 19 20 21 23 25 27 29 29 27 29 33 33 33 36 41 44 44 45 44 43 52 79 123 155 175 190 198 209 216 214 210 211 215 216 217 221 223 224 228 234 237 236 236 240 245 244 240 240 241 241 240 241 241 240 241 246 249 249 251 253 255 253 250 250 251 251 249 248 248 246 246 247 246 244 243 241
358 357 359 1 3 6 9 11 15 17 18 18 18 19 22 24 25 28 29 29 31 33 32 31 32 34 38 42 44 45 43 40 35 29 258 230 230 221 208 207 207 205 209 216 218 220 224 225 226 230 235 238 238 237 239 244 246 244 242 243 243 242 242 243 243 245 248 251 250 250 250 251 252 251 248 247 249 250 249 250 249 248 248 248 245 244 244
340 350 357 0 3 5 7 10 14 16 17 17 16 18 21 22 22 24 26 28 32 33 32 32 31 31 32 34 36 40 42 41 40 37 25 341 279 253 232 221 218 215 217 220 220 221 225 226 227 232 237 241 243 243 243 246 248 247 246 246 247 247 245 246 247 248 249 250 250 252 251 249 250 250 249 247 250 252 252 251 250 248 248 247 245 243 243
328 345 355 359 2 4 6 9 12 14 15 15 16 17 19 19 19 20 22 24 26 28 30 32 32 32 31 30 30 30 31 31 34 32 23 11 348 313 273 245 235 232 230 232 232 232 232 231 230 231 235 241 244 245 247 249 248 249 249 249 250 249 247 248 249 250 250 250 250 251 252 250 248 248 250 250 250 252 253 253 252 250 247 245 243 242 242
319 338 351 356 360 3 5 7 10 13 14 14 15 16 17 17 17 17 18 19 19 21 24 28 30 30 30 29 27 26 24 22 21 18 11 2 346 329 312 284 262 248 242 241 241 240 240 239 239 237 235 240 244 245 247 249 248 247 248 248 249 250 250 249 250 250 249 249 249 249 249 249 249 248 249 249 248 250 253 255 254 251 247 245 245 245 247
310 332 344 351 356 1 4 6 8 11 12 12 13 14 14 14 14 15 15 15 14 16 19 22 24 25 26 25 22 19 18 16 11 5 358 350 336 321 309 298 285 270 259 253 249 248 247 245 245 244 242 244 248 249 250 251 250 248 247 247 247 248 249 248 249 249 248 246 247 249 249 249 250 249 249 248 247 247 249 251 251 250 248 247 248 250 251
299 326 338 346 352 357 1 3 5 7 9 9 10 11 11 11 12 12 11 10 9 11 14 16 17 19 19 19 15 11 9 9 5 359 351 343 332 316 301 291 283 274 268 261 255 254 253 250 248 248 247 248 250 251 251 252 252 252 251 249 248 246 246 247 247 247 247 246 246 248 249 249 249 249 249 249 247 247 247 248 249 250 249 249 249 249 250
292 321 334 340 347 352 355 360 2 4 4 5 6 7 7 7 8 8 8 7 5 6 9 11 12 13 14 13 12 8 5 2 358 354 350 343 335 322 306 293 285 277 269 264 261 259 258 256 253 251 250 249 250 251 252 253 254 254 253 252 251 248 247 248 248 248 248 248 247 248 249 249 249 249 249 249 249 248 247 246 245 245 245 244 243 244 245
288 316 329 335 340 345 349 353 357 360 360 359 1 3 3 3 4 4 3 3 3 3 3 5 8 10 11 12 12 10 5 359 352 350 346 340 334 325 312 302 295 288 281 274 269 266 265 264 262 257 254 253 251 250 251 252 252 251 250 252 256 254 251 250 249 249 249 250 249 249 249 250 250 250 250 251 250 249 248 246 243 241 241 242 243 245 248
285 308 323 330 333 337 342 346 350 353 355 354 356 360 0 359 359 359 359 359 360 360 0 1 3 6 8 9 10 8 4 357 350 348 345 340 335 327 315 304 298 295 292 286 280 277 274 271 267 263 261 258 254 251 250 249 249 249 250 252 255 256 255 252 249 248 250 251 251 251 251 251 250 251 252 252 252 252 251 250 248 245 244 246 248 250 253
280 300 313 321 325 330 335 339 343 348 349 349 351 355 357 356 354 354 356 357 357 357 358 358 359 1 4 5 6 5 2 357 351 347 343 338 334 327 316 304 299 299 298 295 291 289 285 280 275 271 269 264 260 259 258 255 253 252 251 251 253 256 258 256 251 248 250 251 252 252 253 253 252 251 251 252 253 253 253 253 252 252 251 251 252 254 256
276 294 306 313 319 325 329 333 337 342 343 343 346 350 352 352 351 351 352 353 354 354 355 355 356 358 0 1 1 0 358 354 350 346 342 339 335 329 320 312 306 305 305 303 301 297 295 292 287 282 278 274 269 266 263 261 261 258 253 253 255 254 252 250 250 249 250 251 251 252 253 253 253 252 251 252 253 253 253 254 254 254 254 255 256 256 257
279 291 301 308 314 319 323 327 332 337 339 340 343 347 348 348 348 348 349 349 350 350 351 353 354 356 357 355 355 356 354 350 347 344 340 337 334 329 324 316 312 310 308 307 305 304 302 301 297 291 287 282 276 273 269 267 265 262 258 256 255 250 247 246 244 244 247 251 253 255 255 255 255 255 254 253 253 253 254 254 254 255 255 255 256 256 257
280 290 297 304 310 314 318 323 329 333 335 338 341 343 344 344 344 344 345 346 346 346 347 349 352 353 352 351 350 349 348 347 347 345 339 335 332 328 322 316 313 312 311 310 311 311 310 305 301 298 294 289 283 279 275 272 269 265 262 261 259 254 251 250 248 246 248 251 254 255 257 258 259 259 257 255 254 254 254 254 255 255 255 255 255 255 256
277 286 293 300 306 310 314 320 326 330 332 335 338 339 340 340 340 341 342 342 342 342 343 346 348 349 348 346 344 344 346 347 347 344 338 334 331 328 322 318 315 312 311 312 313 315 314 311 306 302 298 294 289 284 278 275 273 268 263 261 260 258 254 253 253 253 254 256 258 258 258 260 262 262 260 258 257 256 256 255 255 255 255 255 256 256 257
276 284 291 297 303 307 311 317 323 327 330 333 335 336 336 336 337 337 338 339 338 338 339 341 344 346 345 342 339 339 342 343 345 344 340 336 331 327 322 318 316 313 311 311 313 315 314 311 308 304 300 296 293 288 284 280 276 272 266 262 260 259 257 255 255 256 257 259 261 261 259 260 261 261 261 260 260 259 258 257 256 255 256 256 256 257 258
279 285 291 296 300 303 308 314 320 324 328 330 332 333 334 335 335 334 334 334 335 335 336 338 341 343 343 339 336 336 338 339 341 342 340 337 334 330 324 319 316 313 310 308 311 314 313 310 308 306 303 299 295 291 288 284 281 277 272 267 263 261 259 258 257 257 257 258 259 260 259 259 259 260 261 261 260 260 260 259 259 259 259 259 260 260 260
281 286 290 294 298 301 305 311 318 322 326 328 330 331 331 332 332 331 330 331 332 332 333 335 338 340 339 337 333 332 335 336 338 341 342 341 338 334 329 323 317 313 310 309 311 313 312 310 309 308 304 300 296 293 289 286 284 281 277 273 270 267 264 261 259 258 258 258 258 258 259 259 259 260 261 261 261 261 261 261 261 261 262 262 262 262 263
280 285 289 293 296 299 304 309 316 321 324 326 327 328 330 331 331 329 328 329 330 330 331 333 335 337 336 333 331 332 334 336 338 341 343 343 341 337 333 327 321 315 312 311 313 314 312 311 310 309 306 301 296 293 291 288 285 282 280 278 276 272 269 266 264 262 260 259 258 258 259 260 260 260 261 261 261 261 261 261 261 261 261 262 262 262 262
279 283 288 291 294 298 303 309 315 320 322 323 325 326 329 331 330 328 328 328 328 329 331 332 333 334 333 330 329 333 335 336 338 340 341 342 342 340 337 332 325 320 317 316 315 315 314 312 311 310 308 302 298 295 293 289 285 282 280 279 277 274 271 269 267 264 262 260 259 259 260 261 261 261 262 262 262 262 261 261 261 261 261 261 261 261 262
277 282 286 290 294 297 301 308 314 317 319 321 323 325 328 330 329 328 328 328 327 328 330 331 331 331 330 327 328 332 334 335 336 338 340 343 343 341 339 336 331 326 323 321 319 317 316 315 313 311 308 304 300 296 293 290 287 283 280 277 276 274 272 270 268 267 265 264 263 262 261 260 261 262 262 263 263 263 263 262 262 262 262 262 262 262 263
278 283 287 289 292 296 301 308 312 314 317 320 322 324 327 328 328 328 328 328 327 327 328 329 329 329 326 324 325 329 333 335 336 338 341 343 343 342 340 338 335 332 330 326 323 319 318 316 313 310 307 303 300 296 292 290 288 285 281 277 274 273 271 270 269 270 270 269 267 265 263 262 262 263 265 265 265 265 265 264 264 263 263 264 264 264 265
278 283 287 289 291 295 301 306 309 313 316 319 320 323 325 326 327 328 328 327 326 327 327 328 327 325 322 320 321 325 331 334 336 339 341 341 342 342 341 339 337 336 333 330 325 321 318 316 313 309 305 302 299 296 293 290 287 284 281 278 275 273 271 270 269 269 269 270 270 270 270 270 270 269 269 269 269 268 267 266 266 265 265 266 266 266 267
279 283 286 287 289 294 299 304 308 313 316 319 320 322 323 325 326 328 328 326 326 326 326 326 325 322 318 316 318 323 328 332 335 338 340 342 343 343 342 341 339 337 334 331 328 324 319 317 314 310 305 302 301 297 293 290 286 283 280 278 275 272 271 270 270 270 270 270 271 272 272 272 272 271 271 271 271 270 269 268 267 267 266 266 267 268 269
279 283 284 285 287 291 297 303 309 313 316 318 319 320 321 323 326 327 327 325 325 325 325 324 323 320 316 315 317 322 326 330 334 339 341 343 343 342 341 341 338 335 333 331 328 325 321 317 314 309 303 302 302 299 292 289 287 284 281 277 273 271 271 271 271 272 271 271 271 271 272 273 273 273 272 272 271 270 269 268 267 266 266 266 267 268 269
277 280 282 283 286 291 298 304 310 313 316 317 317 318 320 321 324 325 324 323 324 325 324 323 321 318 314 312 315 321 326 330 334 338 339 341 341 340 340 339 335 331 330 329 328 325 320 315 311 305 300 299 300 297 292 290 288 285 281 277 274 273 272 272 273 273 272 271 271 271 273 274 275 274 274 273 272 271 269 268 267 266 265 265 266 267 267
275 278 279 281 286 292 299 305 309 312 315 315 316 317 318 319 321 322 322 322 324 324 323 321 319 316 313 311 313 319 325 329 332 335 337 339 340 338 336 333 330 329 330 329 327 324 319 314 309 303 298 299 298 294 291 290 289 285 281 278 275 274 274 274 275 275 274 274 275 275 274 274 274 274 275 274 273 272 270 268 267 265 264 264 265 265 262
273 275 277 281 287 293 300 304 308 311 313 314 314 316 317 317 318 320 320 321 322 322 321 319 316 312 309 309 311 316 321 326 329 332 334 336 336 334 331 329 329 330 331 330 327 322 317 313 309 302 298 299 298 293 290 291 290 286 282 278 276 275 275 275 275 276 275 275 275 275 275 275 274 273 273 273 273 272 270 268 266 264 262 262 262 260 256
270 273 277 282 287 294 298 301 306 310 312 312 313 314 314 314 315 316 317 318 320 320 318 315 312 307 304 305 309 314 319 324 328 330 332 332 331 329 329 329 330 331 332 332 329 323 317 312 309 306 302 301 299 296 294 294 292 288 284 279 275 274 273 273 274 275 275 274 274 274 274 274 273 273 273 273 273 272 270 268 265 263 261 260 258 253 248
268 272 277 282 288 292 296 300 305 308 309 311 312 313 312 312 312 313 314 316 318 318 316 312 307 302 300 302 307 312 318 323 327 327 327 328 328 329 330 331 331 332 334 333 330 325 318 313 312 312 311 308 305 303 299 297 296 293 287 281 277 275 273 272 272 273 273 272 271 272 272 271 272 272 273 273 273 273 271 268 265 262 259 257 254 247 241
269 274 278 282 287 291 294 299 304 306 306 308 311 311 310 309 309 310 312 314 316 316 313 307 302 298 297 299 304 309 315 320 323 324 324 325 328 330 331 331 331 333 335 334 330 326 320 315 313 314 311 309 309 306 301 297 297 295 289 282 277 274 272 271 271 270 269 268 266 267 269 271 272 273 274 274 274 273 269 267 265 261 258 255 251 244 237
271 275 279 283 287 290 294 299 302 303 302 304 308 308 306 306 306 306 309 312 314 313 308 301 296 294 294 297 302 308 313 317 320 322 324 326 327 328 329 331 333 334 335 334 330 325 321 317 315 314 311 309 309 307 302 299 299 298 293 286 278 272 269 269 269 268 267 265 263 263 266 269 272 273 274 275 275 273 269 264 261 258 256 254 250 243 236
271 275 278 283 287 290 294 297 299 298 297 300 303 304 303 303 303 304 307 310 311 309 304 297 292 291 291 295 301 307 313 316 319 322 323 324 325 326 329 332 334 335 335 334 329 324 320 319 317 315 312 309 307 304 303 302 302 301 298 292 282 271 264 261 261 263 265 265 263 262 264 266 268 270 272 273 274 272 269 264 260 256 254 252 249 243 237
272 276 280 284 288 291 294 295 294 293 293 296 299 302 302 302 302 303 305 308 310 308 304 299 295 293 293 294 299 306 311 315 318 320 321 322 324 326 330 333 335 335 335 334 331 324 320 318 316 314 311 308 304 303 304 303 302 302 301 294 283 272 263 258 258 260 262 263 262 260 261 263 264 266 268 271 271 270 267 264 260 257 254 252 249 245 239
273 278 283 286 289 291 292 292 291 290 291 293 297 300 301 301 301 301 303 305 307 306 303 298 295 295 296 297 300 305 309 313 315 317 319 322 325 327 330 334 336 335 334 333 331 326 321 318 316 313 310 305 302 301 303 302 302 302 299 293 284 274 266 262 260 260 260 261 260 259 259 261 263 265 266 268 270 269 267 264 261 258 254 251 248 246 242
276 281 285 288 290 291 291 290 289 289 290 292 296 298 299 299 299 299 300 302 303 302 300 297 294 293 294 295 297 301 306 311 314 317 320 323 326 329 332 334 335 335 334 332 329 325 322 320 317 313 308 303 299 299 300 300 300 299 296 291 284 277 270 265 263 261 262 263 261 258 257 259 263 265 267 268 268 269 268 265 261 258 254 251 248 245 242
281 285 287 289 290 291 290 288 287 287 288 290 294 297 298 298 298 297 296 298 299 298 297 294 291 289 288 289 293 299 305 310 313 317 321 323 326 329 331 333 335 336 335 332 328 324 323 322 318 313 307 303 299 297 296 296 296 294 292 288 283 277 271 267 264 263 263 263 262 260 258 257 258 262 266 267 268 269 269 267 263 258 254 251 249 246 242
Height
5647 5645 5644 5644 5643 5642 5640 5639 5638 5636 5635 5633 5631 5629 5627 5625 5622 5619 5616 5614 5612 5611 5609 5609 5609 5609 5609 5609 5610 5610 5612 5615 5619 5622 5624 5626 5628 5630 5632 5634 5638 5641 5643 5645 5647 5649 5651 5654 5655 5656 5657 5657 5657 5658 5662 5666 5668 5670 5670 5670 5673 5676 5677 5679 5681 5682 5683 5684 5685 5687 5690 5692 5692 5694 5696 5698 5698 5700 5701 5702 5703 5704 5704 5706 5707 5707 5706
5645 5644 5643 5642 5641 5640 5639 5638 5636 5635 5633 5631 5629 5626 5624 5621 5618 5615 5612 5610 5608 5606 5604 5604 5604 5604 5604 5605 5605 5606 5607 5610 5613 5616 5619 5621 5624 5625 5627 5631 5634 5636 5638 5641 5644 5645 5647 5651 5652 5652 5655 5656 5655 5656 5659 5662 5664 5665 5666 5668 5671 5673 5674 5676 5678 5679 5681 5682 5683 5686 5687 5688 5689 5691 5693 5694 5695 5697 5698 5698 5699 5700 5700 5702 5703 5703 5703
5644 5643 5642 5641 5640 5639 5638 5636 5635 5633 5631 5629 5627 5624 5621 5618 5615 5612 5608 5605 5602 5600 5598 5598 5598 5598 5599 5601 5602 5602 5603 5605 5607 5611 5614 5616 5619 5620 5623 5627 5629 5631 5634 5638 5641 5642 5644 5648 5650 5650 5652 5652 5653 5655 5656 5658 5659 5661 5664 5666 5668 5669 5670 5673 5674 5675 5676 5678 5679 5681 5683 5684 5687 5688 5689 5690 5692 5693 5694 5695 5696 5696 5698 5699 5699 5699 5699
5643 5642 5641 5640 5639 5638 5636 5635 5633 5632 5629 5627 5625 5622 5618 5615 5612 5608 5604 5600 5596 5594 5592 5592 5593 5594 5595 5597 5598 5600 5601 5601 5603 5606 5609 5611 5614 5616 5619 5622 5624 5627 5631 5634 5637 5639 5642 5645 5646 5648 5650 5648 5649 5652 5653 5654 5657 5659 5661 5662 5664 5666 5667 5669 5670 5671 5673 5674 5675 5676 5678 5681 5683 5684 5684 5686 5688 5690 5690 5692 5693 5693 5695 5696 5696 5695 5696
5642 5641 5640 5639 5638 5636 5635 5634 5632 5630 5628 5625 5623 5620 5616 5613 5609 5604 5599 5595 5592 5591 5590 5590 5590 5591 5593 5594 5595 5597 5598 5599 5600 5602 5605 5607 5610 5612 5615 5618 5621 5624 5627 5631 5634 5637 5639 5641 5643 5647 5648 5646 5646 5649 5651 5652 5655 5656 5658 5659 5661 5662 5663 5665 5666 5667 5669 5671 5673 5674 5675 5677 5678 5679 5680 5682 5684 5685 5687 5688 5688 5689 5691 5692 5691 5691 5692
5641 5640 5639 5638 5637 5636 5634 5633 5631 5629 5627 5624 5621 5618 5615 5611 5606 5601 5596 5592 5591 5590 5590 5589 5589 5590 5590 5592 5593 5594 5595 5596 5598 5599 5602 5604 5606 5609 5612 5615 5618 5621 5624 5628 5631 5633 5636 5638 5639 5643 5644 5643 5644 5647 5648 5650 5652 5653 5655 5657 5658 5660 5660 5661 5663 5664 5665 5667 5669 5671 5672 5671 5672 5674 5676 5678 5680 5682 5683 5683 5685 5687 5688 5688 5687 5688 5689
5640 5639 5638 5637 5636 5635 5634 5632 5630 5628 5625 5623 5620 5617 5613 5609 5604 5599 5595 5592 5591 5591 5591 5590 5589 5589 5589 5590 5591 5592 5592 5593 5595 5597 5599 5601 5604 5607 5610 5612 5615 5618 5621 5624 5626 5629 5632 5634 5636 5639 5640 5641 5643 5644 5645 5648 5650 5650 5652 5654 5656 5657 5658 5659 5660 5661 5662 5664 5665 5667 5667 5667 5667 5670 5672 5674 5676 5678 5678 5679 5681 5683 5684 5683 5683 5685 5686
5639 5639 5638 5637 5636 5635 5633 5631 5629 5627 5625 5623 5620 5616 5613 5609 5604 5600 5596 5594 5593 5593 5591 5590 5589 5588 5588 5589 5589 5590 5590 5591 5593 5595 5597 5599 5602 5605 5608 5610 5613 5616 5618 5620 5623 5626 5629 5631 5634 5636 5637 5639 5641 5641 5643 5646 5647 5648 5649 5651 5653 5654 5655 5656 5657 5658 5659 5661 5661 5662 5663 5663 5664 5666 5669 5670 5672 5673 5674 5676 5677 5679 5679 5680 5681 5682 5683
5638 5638 5637 5636 5635 5634 5633 5631 5629 5627 5624 5622 5619 5616 5613 5609 5605 5601 5598 5596 5594 5593 5592 5591 5590 5588 5588 5588 5588 5589 5589 5590 5592 5594 5596 5598 5601 5604 5606 5608 5610 5613 5616 5619 5621 5624 5627 5629 5632 5633 5635 5637 5638 5639 5642 5645 5645 5645 5647 5648 5650 5651 5652 5653 5655 5655 5656 5657 5658 5658 5659 5660 5660 5662 5665 5666 5667 5668 5670 5672 5673 5674 5675 5676 5677 5678 5679
5637 5637 5636 5636 5635 5633 5632 5630 5628 5626 5624 5621 5619 5616 5613 5610 5606 5602 5599 5597 5595 5594 5593 5592 5591 5588 5587 5587 5588 5589 5589 5590 5591 5593 5596 5598 5600 5602 5604 5606 5609 5612 5615 5618 5620 5622 5624 5627 5629 5631 5632 5634 5635 5637 5640 5641 5642 5643 5644 5645 5647 5648 5650 5651 5651 5652 5654 5654 5654 5655 5656 5656 5657 5659 5661 5662 5663 5664 5666 5667 5668 5670 5671 5672 5672 5674 5675
5637 5636 5636 5635 5634 5633 5631 5630 5628 5626 5623 5621 5619 5616 5613 5610 5607 5603 5601 5598 5596 5594 5593 5592 5591 5590 5588 5588 5588 5589 5589 5590 5592 5593 5595 5597 5599 5601 5603 5605 5608 5611 5614 5616 5618 5621 5623 5625 5627 5628 5630 5631 5633 5635 5636 5638 5640 5641 5641 5643 5644 5645 5647 5648 5649 5650 5651 5651 5651 5651 5652 5654 5655 5656 5657 5657 5658 5660 5661 5663 5664 5665 5667 5667 5668 5670 5671
5636 5636 5635 5635 5634 5632 5631 5629 5627 5625 5623 5621 5619 5616 5614 5611 5608 5605 5602 5600 5597 5595 5594 5593 5592 5591 5590 5589 5589 5589 5590 5591 5592 5593 5595 5596 5598 5600 5602 5605 5607 5609 5612 5614 5616 5619 5620 5622 5624 5626 5627 5628 5630 5631 5633 5634 5636 5638 5638 5640 5641 5643 5644 5646 5646 5647 5647 5647 5648 5648 5649 5650 5652 5652 5653 5653 5654 5655 5657 5658 5659 5660 5662 5663 5664 5665 5667
5636 5635 5635 5634 5633 5632 5630 5629 5627 5625 5623 5621 5619 5617 5614 5612 5609 5606 5604 5602 5599 5597 5595 5594 5593 5592 5591 5590 5590 5590 5591 5591 5592 5594 5595 5596 5598 5599 5601 5603 5606 5608 5610 5612 5614 5616 5618 5619 5621 5623 5624 5626 5627 5628 5629 5631 5632 5634 5635 5637 5638 5640 5641 5642 5643 5644 5644 5645 5645 5644 5645 5647 5648 5648 5649 5649 5651 5652 5652 5653 5655 5656 5657 5659 5660 5661 5663
5635 5635 5634 5633 5632 5631 5630 5629 5627 5625 5623 5621 5619 5617 5615 5612 5610 5607 5605 5603 5601 5599 5597 5596 5594 5593 5592 5592 5592 5592 5592 5592 5593 5594 5595 5596 5597 5599 5601 5602 5604 5606 5608 5610 5612 5614 5615 5617 5619 5621 5622 5623 5624 5625 5626 5627 5629 5630 5632 5634 5635 5636 5637 5639 5640 5640 5641 5642 5641 5641 5642 5643 5644 5644 5645 5646 5647 5648 5649 5650 5651 5652 5653 5654 5655 5657 5659
5635 5634 5633 5633 5632 5631 5630 5628 5627 5625 5623 5621 5620 5618 5615 5613 5611 5609 5607 5605 5603 5601 5599 5598 5596 5595 5594 5593 5593 5593 5593 5593 5593 5594 5595 5596 5597 5598 5600 5601 5603 5604 5606 5608 5610 5611 5613 5615 5617 5618 5619 5620 5621 5623 5623 5623 5625 5627 5628 5630 5632 5632 5633 5635 5636 5636 5637 5638 5638 5638 5638 5638 5640 5641 5642 5643 5644 5644 5645 5647 5648 5648 5649 5650 5652 5653 5654
5634 5634 5633 5632 5631 5630 5629 5628 5626 5625 5623 5621 5620 5618 5616 5614 5612 5610 5608 5607 5605 5602 5601 5600 5599 5597 5596 5595 5594 5594 5593 5594 5594 5594 5595 5596 5597 5598 5599 5600 5601 5603 5605 5607 5608 5610 5611 5613 5614 5616 5616 5617 5618 5620 5620 5620 5620 5622 5625 5626 5627 5629 5630 5630 5632 5633 5633 5634 5635 5635 5634 5634 5636 5638 5639 5639 5639 5640 5642 5643 5644 5645 5645 5646 5648 5649 5649
5633 5633 5632 5632 5631 5630 5629 5628 5626 5625 5623 5621 5620 5618 5616 5614 5613 5611 5610 5608 5606 5604 5603 5602 5600 5599 5598 5597 5596 5596 5595 5595 5595 5595 5595 5596 5597 5597 5598 5599 5601 5603 5604 5605 5606 5608 5609 5610 5612 5613 5613 5613 5615 5616 5617 5616 5617 5619 5621 5622 5623 5625 5626 5627 5629 5630 5629 5630 5631 5630 5630 5630 5632 5633 5635 5635 5635 5637 5638 5638 5639 5642 5642 5642 5644 5645 5646
5633 5632 5632 5631 5630 5629 5628 5627 5626 5624 5623 5621 5620 5618 5616 5615 5613 5612 5610 5609 5607 5606 5604 5603 5602 5601 5599 5599 5598 5597 5597 5596 5596 5596 5596 5596 5596 5597 5598 5599 5600 5601 5603 5603 5604 5605 5606 5608 5609 5609 5610 5611 5612 5613 5613 5613 5615 5616 5617 5618 5619 5621 5622 5623 5625 5625 5625 5625 5626 5626 5626 5627 5628 5629 5631 5632 5632 5633 5634 5634 5636 5638 5638 5638 5639 5641 5642
5632 5631 5631 5630 5630 5629 5628 5626 5625 5624 5623 5621 5620 5618 5617 5615 5614 5612 5610 5609 5608 5607 5606 5604 5603 5602 5601 5600 5599 5598 5598 5597 5597 5597 5597 5596 5596 5596 5597 5597 5598 5599 5600 5601 5602 5603 5604 5605 5606 5607 5608 5608 5609 5609 5609 5610 5612 5613 5613 5615 5616 5616 5617 5619 5620 5619 5620 5621 5622 5622 5621 5622 5624 5625 5626 5628 5629 5629 5629 5630 5632 5633 5633 5633 5635 5636 5637
5631 5631 5630 5630 5629 5628 5627 5626 5625 5624 5622 5621 5620 5618 5617 5615 5614 5612 5611 5609 5608 5607 5606 5605 5604 5603 5602 5601 5600 5599 5598 5598 5597 5597 5597 5597 5597 5596 5597 5597 5597 5598 5598 5599 5600 5601 5602 5602 5603 5605 5606 5605 5605 5606 5607 5607 5609 5609 5610 5611 5611 5611 5614 5615 5614 5614 5616 5617 5617 5616 5616 5618 5620 5621 5622 5623 5625 5625 5625 5626 5628 5628 5628 5629 5630 5632 5632
5630 5630 5629 5629 5628 5627 5626 5625 5624 5623 5622 5621 5619 5618 5617 5615 5614 5613 5611 5610 5609 5607 5606 5605 5604 5603 5602 5601 5600 5599 5599 5598 5598 5597 5597 5597 5596 5596 5596 5596 5596 5596 5597 5597 5597 5598 5599 5600 5600 5602 5603 5602 5602 5603 5604 5604 5604 5605 5606 5607 5607 5608 5610 5610 5609 5610 5611 5611 5610 5611 5612 5614 5615 5616 5617 5618 5619 5620 5621 5622 5623 5623 5623 5624 5626 5627 5628
5629 5629 5628 5628 5627 5626 5626 5625 5624 5622 5621 5620 5619 5618 5617 5615 5614 5613 5611 5610 5609 5607 5606 5605 5604 5603 5602 5601 5600 5600 5599 5598 5598 5597 5597 5596 5596 5596 5596 5596 5596 5596 5596 5596 5596 5596 5597 5597 5598 5599 5599 5599 5599 5600 5601 5600 5600 5600 5601 5602 5602 5603 5604 5604 5604 5606 5606 5605 5606 5607 5608 5609 5610 5611 5612 5612 5614 5615 5616 5617 5617 5618 5618 5620 5621 5622 5622
5628 5628 5627 5627 5626 5626 5625 5624 5623 5622 5621 5620 5619 5617 5616 5615 5614 5612 5611 5610 5609 5607 5606 5605 5604 5603 5602 5601 5600 5599 5599 5598 5597 5597 5596 5596 5596 5595 5595 5595 5594 5594 5594 5594 5594 5594 5595 5595 5595 5596 5596 5596 5596 5596 5597 5597 5596 5596 5597 5597 5597 5598 5599 5599 5599 5600 5600 5600 5601 5602 5603 5604 5605 5606 5606 5607 5608 5610 5610 5611 5613 5613 5614 5614 5615 5616 5616
5627 5627 5627 5626 5625 5624 5624 5623 5622 5621 5620 5619 5618 5617 5616 5614 5613 5612 5611 5610 5609 5607 5606 5605 5604 5603 5602 5601 5600 5599 5598 5598 5597 5597 5596 5595 5595 5594 5594 5594 5593 5593 5593 5593 5593 5593 5593 5593 5593 5593 5593 5593 5593 5593 5594 5594 5593 5593 5593 5593 5593 5593 5593 5594 5594 5595 5594 5594 5595 5596 5597 5598 5599 5600 5600 5601 5602 5603 5604 5606 5607 5608 5608 5608 5609 5610 5611
5626 5626 5626 5625 5624 5623 5623 5622 5621 5620 5619 5618 5617 5616 5615 5614 5612 5611 5610 5609 5608 5607 5606 5604 5604 5603 5602 5601 5600 5599 5598 5597 5597 5596 5595 5595 5594 5594 5593 5593 5592 5592 5592 5592 5591 5591 5591 5591 5591 5591 5591 5591 5591 5590 5590 5590 5590 5590 5590 5590 5589 5589 5590 5590 5590 5589 5588 5588 5589 5590 5591 5591 5592 5594 5594 5595 5596 5597 5598 5599 5601 5601 5602 5603 5603 5604 5605
5625 5625 5625 5624 5624 5623 5622 5621 5620 5619 5618 5617 5616 5615 5614 5613 5612 5611 5609 5608 5607 5606 5605 5604 5603 5602 5601 5600 5599 5598 5597 5596 5596 5595 5595 5594 5593 5593 5592 5592 5591 5591 5590 5590 5590 5589 5589 5589 5589 5588 5588 5588 5588 5588 5588 5587 5587 5587 5587 5586 5586 5586 5587 5586 5586 5585 5584 5584 5584 5585 5585 5585 5586 5587 5588 5589 5590 5591 5592 5592 5594 5595 5595 5596 5597 5598 5598
5624 5624 5624 5623 5623 5622 5621 5620 5619 5618 5617 5616 5615 5614 5613 5612 5611 5610 5608 5607 5606 5605 5604 5603 5602 5601 5600 5599 5598 5597 5596 5596 5595 5594 5594 5593 5593 5592 5591 5591 5590 5590 5589 5589 5588 5588 5587 5587 5587 5586 5586 5586 5585 5585 5585 5584 5584 5584 5584 5583 5583 5583 5583 5583 5583 5582 5581 5580 5580 5580 5580 5580 5580 5581 5582 5583 5584 5585 5585 5586 5587 5588 5589 5590 5590 5591 5592
5623 5623 5623 5622 5622 5621 5620 5619 5618 5618 5617 5616 5614 5613 5612 5611 5610 5609 5607 5606 5605 5604 5603 5602 5601 5600 5599 5598 5597 5597 5596 5595 5594 5593 5593 5592 5592 5591 5590 5590 5589 5589 5588 5587 5587 5586 5586 5585 5585 5584 5584 5583 5583 5582 5582 5582 5581 5581 5581 5580 5580 5580 5579 5580 5580 5579 5578 5577 5577 5577 5577 5576 5576 5576 5578 5578 5578 5579 5580 5580 5581 5582 5583 5583 5584 5584 5585
5622 5622 5621 5621 5621 5620 5619 5618 5617 5616 5616 5615 5614 5612 5611 5610 5609 5608 5606 5605 5604 5603 5602 5601 5600 5599 5598 5597 5596 5596 5595 5594 5593 5592 5592 5591 5591 5590 5589 5589 5588 5587 5587 5586 5585 5585 5584 5583 5582 5582 5581 5581 5580 5580 5579 5579 5578 5578 5577 5577 5577 5577 5576 5576 5576 5575 5575 5575 5574 5574 5574 5573 5573 5573 5573 5574 5574 5575 5575 5576 5576 5577 5577 5578 5578 5579 5579
5621 5621 5620 5620 5619 5619 5618 5617 5616 5615 5614 5613 5612 5611 5610 5609 5608 5607 5605 5604 5603 5602 5601 5600 5599 5598 5597 5596 5595 5594 5594 5593 5592 5591 5591 5590 5589 5589 5588 5587 5587 5586 5585 5585 5584 5583 5582 5581 5580 5580 5579 5578 5578 5577 5577 5576 5575 5575 5574 5574 5574 5573 5573 5573 5573 5572 5572 5571 5571 5571 5571 5570 5570 5570 5570 5570 5571 5571 5571 5572 5572 5572 5573 5573 5573 5574 5574
5620 5619 5619 5619 5618 5617 5616 5616 5615 5614 5613 5612 5611 5610 5609 5608 5607 5605 5604 5603 5601 5600 5599 5598 5598 5597 5596 5595 5594 5593 5592 5592 5591 5590 5590 5589 5588 5587 5587 5586 5585 5585 5584 5583 5582 5581 5580 5580 5579 5578 5577 5576 5575 5574 5574 5573 5572 5571 5571 5571 5571 5570 5570 5570 5570 5569 5568 5568 5568 5568 5568 5568 5567 5567 5567 5567 5567 5568 5568 5568 5568 5568 5569 5569 5569 5569 5570
5618 5618 5618 5617 5617 5616 5615 5614 5614 5613 5612 5611 5610 5609 5607 5606 5605 5604 5603 5601 5600 5599 5598 5597 5596 5595 5594 5593 5592 5592 5591 5590 5590 5589 5588 5588 5587 5586 5585 5584 5584 5583 5582 5581 5581 5580 5579 5578 5577 5576 5575 5574 5573 5572 5571 5570 5569 5569 5568 5568 5568 5567 5567 5567 5566 5566 5566 5565 5565 5565 5565 5565 5564 5564 5564 5564 5564 5564 5564 5564 5564 5565 5565 5565 5565 5566 5566
5616 5616 5616 5615 5615 5614 5614 5613 5612 5611 5610 5609 5608 5607 5606 5605 5604 5602 5601 5600 5599 5597 5596 5595 5595 5594 5593 5592 5591 5590 5590 5589 5588 5588 5587 5586 5585 5585 5584 5583 5582 5581 5581 5580 5579 5578 5577 5576 5575 5574 5573 5571 5570 5569 5569 5568 5567 5566 5565 5565 5564 5564 5564 5563 5563 5563 5562 5562 5562 5562 5561 5561 5561 5561 5561 5561 5561 5561 5561 5561 5561 5561 5561 5561 5561 5562 5562
5614 5614 5614 5614 5613 5613 5612 5611 5611 5610 5609 5608 5607 5606 5605 5603 5602 5601 5599 5598 5597 5596 5595 5594 5593 5592 5591 5591 5590 5589 5588 5588 5587 5586 5586 5585 5584 5583 5582 5582 5581 5580 5579 5578 5577 5576 5575 5574 5573 5572 5570 5569 5568 5567 5566 5565 5564 5563 5562 5562 5561 5561 5560 5560 5559 5559 5559 5559 5558 5558 5558 5558 5558 5558 5557 5557 5557 5558 5558 5557 5558 5558 5558 5558 5558 5558 5558
5612 5612 5612 5612 5611 5611 5610 5610 5609 5608 5607 5606 5605 5604 5603 5602 5600 5599 5598 5597 5595 5594 5593 5592 5591 5591 5590 5589 5588 5588 5587 5586 5586 5585 5584 5583 5583 5582 5581 5580 5579 5578 5578 5577 5576 5575 5573 5572 5571 5569 5568 5567 5566 5564 5563 5562 5561 5560 5559 5559 5558 5558 5557 5557 5556 5555 5555 5555 5555 5555 5555 5555 5554 5554 5554 5554 5554 5554 5554 5554 5554 5554 5554 5555 5555 5555 5555
5610 5610 5610 5610 5609 5609 5609 5608 5607 5607 5606 5605 5604 5602 5601 5600 5598 5597 5596 5595 5594 5593 5592 5591 5590 5589 5588 5588 5587 5586 5586 5585 5584 5584 5583 5582 5581 5580 5579 5578 5578 5577 5576 5575 5574 5573 5572 5570 5569 5567 5566 5565 5563 5562 5561 5559 5558 5557 5557 5556 5555 5554 5554 5553 5552 5552 5552 5552 5552 5552 5552 5552 5551 5551 5551 5551 5551 5551 5551 5551 5551 5551 5551 5551 5551 5551 5551
5608 5608 5608 5608 5608 5607 5607 5606 5606 5605 5604 5603 5602 5601 5599 5598 5597 5596 5594 5593 5592 5591 5590 5589 5588 5588 5587 5586 5585 5585 5584 5584 5583 5582 5581 5581 5580 5579 5578 5577 5576 5575 5574 5573 5572 5571 5569 5568 5567 5565 5563 5562 5561 5559 5558 5557 5555 5554 5554 5553 5552 5551 5551 5550 5549 5549 5549 5548 5548 5548 5548 5548 5548 5548 5548 5548 5548 5548 5548 5548 5548 5548 5548 5547 5548 5547 5547
5606 5606 5606 5606 5606 5605 5605 5605 5604 5603 5602 5601 5600 5599 5598 5596 5595 5594 5593 5591 5590 5590 5589 5588 5587 5586 5585 5585 5584 5584 5583 5582 5582 5581 5580 5579 5578 5577 5577 5576 5575 5574 5573 5571 5570 5569 5567 5566 5564 5562 5561 5559 5558 5556 5555 5554 5553 5551 5550 5550 5549 5548 5547 5547 5546 5546 5546 5545 5545 5545 5545 5544 5544 5544 5544 5544 5544 5544 5544 5544 5544 5544 5544 5544 5544 5544 5544
5604 5604 5604 5604 5604 5603 5603 5603 5602 5601 5600 5599 5598 5597 5596 5595 5593 5592 5591 5590 5589 5588 5587 5586 5585 5585 5584 5583 5583 5582 5582 5581 5580 5580 5579 5578 5577 5576 5575 5574 5573 5572 5571 5569 5568 5567 5565 5563 5561 5559 5557 5556 5555 5553 5552 5550 5549 5548 5547 5546 5546 5545 5544 5544 5543 5543 5543 5542 5542 5541 5541 5541 5541 5541 5541 5541 5541 5541 5541 5541 5541 5541 5540 5540 5540 5540 5540
5602 5602 5602 5602 5602 5601 5601 5601 5600 5599 5598 5597 5596 5595 5594 5593 5591 5590 5589 5588 5587 5586 5586 5585 5584 5583 5582 5582 5581 5581 5580 5580 5579 5578 5577 5576 5575 5574 5573 5572 5571 5570 5569 5567 5566 5564 5562 5560 5558 5556 5554 5551 5551 5550 5548 5547 5545 5545 5544 5543 5542 5542 5541 5540 5540 5540 5540 5539 5539 5538 5538 5538 5538 5538 5538 5538 5537 5537 5537 5537 5537 5537 5537 5537 5537 5537 5537
5599 5599 5599 5599 5599 5599 5599 5599 5598 5597 5596 5595 5594 5593 5592 5591 5589 5588 5587 5586 5586 5585 5584 5583 5582 5581 5581 5580 5580 5579 5579 5578 5577 5577 5576 5575 5574 5573 5572 5571 5569 5568 5566 5565 5563 5562 5559 5557 5555 5553 5550 5548 5547 5546 5544 5543 5542 5541 5540 5539 5538 5538 5538 5537 5537 5537 5537 5536 5536 5535 5535 5535 5534 5534 5534 5534 5534 5534 5534 5534 5534 5534 5534 5534 5534 5534 5533
5597 5597 5597 5597 5597 5597 5597 5596 5596 5595 5594 5593 5592 5591 5590 5589 5588 5587 5586 5585 5584 5583 5582 5581 5580 5580 5579 5579 5578 5578 5577 5577 5576 5575 5574 5573 5572 5571 5570 5568 5567 5566 5564 5562 5561 5558 5556 5554 5551 5548 5545 5544 5543 5542 5540 5539 5539 5538 5536 5535 5534 5534 5534 5534 5534 5534 5534 5533 5533 5532 5532 5532 5531 5531 5531 5531 5530 5531 5531 5530 5530 5531 5531 5531 5531 5531 5531
5595 5595 5595 5595 5595 5595 5595 5594 5594 5593 5592 5591 5590 5589 5588 5587 5586 5585 5584 5583 5582 5581 5580 5580 5579 5578 5578 5577 5577 5576 5576 5575 5574 5573 5572 5571 5570 5569 5568 5566 5565 5563 5561 5559 5557 5554 5551 5549 5547 5544 5541 5539 5539 5538 5536 5535 5535 5534 5533 5532 5531 5531 5531 5531 5531 5531 5531 5531 5530 5529 5529 5529 5528 5528 5528 5528 5527 5527 5527 5527 5527 5527 5528 5528 5528 5528 5528
5592 5592 5592 5593 5593 5593 5592 5592 5591 5591 5590 5589 5588 5587 5586 5585 5583 5583 5582 5581 5580 5580 5579 5578 5577 5576 5576 5575 5575 5574 5574 5573 5572 5571 5570 5569 5568 5567 5566 5564 5562 5560 5558 5556 5553 5550 5547 5544 5543 5541 5538 5536 5535 5534 5533 5532 5531 5530 5530 5529 5528 5528 5528 5528 5527 5527 5527 5528 5527 5526 5526 5526 5526 5525 5525 5525 5524 5524 5524 5524 5524 5525 5525 5525 5525 5525 5525
5590 5590 5590 5590 5590 5590 5590 5590 5589 5589 5588 5587 5586 5585 5583 5582 5581 5581 5580 5579 5579 5578 5577 5576 5575 5575 5574 5573 5573 5572 5572 5571 5571 5570 5569 5567 5566 5564 5563 5561 5559 5557 5555 5552 5549 5546 5543 5539 5537 5536 5535 5533 5531 5530 5529 5528 5528 5527 5526 5525 5525 5525 5525 5525 5524 5524 5524 5524 5524 5523 5523 5523 5523 5523 5522 5522 5522 5521 5521 5521 5521 5522 5522 5522 5522 5523 5523
5587 5588 5588 5588 5588 5588 5587 5587 5587 5586 5586 5585 5584 5582 5581 5580 5579 5578 5578 5578 5577 5576 5575 5574 5573 5573 5572 5571 5571 5570 5570 5569 5568 5567 5566 5565 5564 5562 5560 5558 5556 5553 5551 5548 5545 5542 5539 5536 5533 5532 5530 5529 5528 5527 5526 5525 5524 5524 5523 5523 5522 5522 5521 5521 5521 5521 5521 5521 5521 5520 5520 5520 5520 5520 5520 5519 5519 5519 5519 5519 5519 5519 5520 5520 5520 5520 5521
5585 5585 5585 5585 5585 5585 5585 5585 5584 5584 5583 5583 5582 5580 5579 5578 5577 5576 5576 5576 5575 5574 5573 5572 5571 5571 5570 5569 5569 5569 5568 5567 5566 5565 5564 5562 5561 5559 5558 5556 5553 5550 5547 5544 5541 5538 5536 5533 5531 5529 5527 5525 5524 5524 5522 5521 5520 5520 5520 5520 5519 5519 5519 5519 5518 5518 5518 5518 5518 5518 5517 5517 5517 5517 5517 5517 5516 5516 5516 5516 5516 5517 5517 5517 5518 5518 5519
5582 5582 5583 5583 5583 5583 5582 5582 5582 5581 5581 5580 5579 5578 5577 5576 5575 5574 5574 5573 5573 5572 5571 5570 5569 5569 5568 5567 5566 5566 5566 5565 5564 5562 5561 5560 5558 5557 5555 5553 5550 5547 5543 5540 5537 5534 5531 5529 5528 5526 5525 5523 5521 5520 5519 5518 5517 5517 5517 5517 5517 5516 5516 5516 5516 5515 5515 5516 5515 5515 5515 5515 5514 5514 5514 5514 5514 5514 5514 5514 5514 5514 5515 5515 5515 5516 5516
5580 5580 5580 5580 5580 5580 5580 5579 5579 5578 5578 5577 5577 5576 5575 5574 5573 5572 5571 5571 5570 5569 5568 5567 5567 5566 5566 5565 5564 5564 5563 5562 5561 5560 5559 5558 5556 5554 5552 5549 5546 5543 5540 5537 5534 5531 5528 5526 5524 5523 5521 5520 5518 5517 5516 5515 5514 5514 5514 5514 5513 5514 5514 5513 5513 5513 5513 5513 5513 5513 5513 5512 5512 5512 5511 5511 5511 5511 5511 5511 5511 5512 5512 5513 5513 5513 5514
5577 5577 5578 5577 5577 5577 5577 5576 5576 5575 5575 5575 5574 5573 5572 5571 5571 5569 5569 5568 5567 5566 5566 5565 5564 5564 5563 5563 5562 5561 5561 5560 5559 5558 5556 5555 5553 5551 5548 5546 5543 5539 5535 5532 5530 5527 5524 5522 5520 5519 5518 5516 5515 5514 5513 5512 5512 5511 5511 5510 5510 5510 5510 5510 5510 5510 5510 5510 5510 5510 5510 5510 5509 5509 5509 5508 5509 5509 5509 5509 5509 5509 5510 5510 5511 5511 5512
5575 5575 5575 5575 5574 5574 5574 5573 5573 5572 5572 5572 5571 5570 5570 5569 5568 5567 5566 5565 5565 5564 5563 5562 5562 5561 5561 5560 5560 5559 5559 5558 5557 5555 5554 5552 5550 5547 5545 5542 5539 5536 5532 5528 5526 5523 5521 5518 5517 5515 5514 5513 5512 5511 5510 5509 5509 5508 5508 5508 5507 5507 5507 5507 5507 5507 5507 5507 5507 5507 5507 5507 5507 5506 5506 5506 5506 5506 5506 5507 5507 5507 5507 5508 5508 5509 5509
5572 5572 5572 5572 5571 5571 5571 5570 5570 5569 5569 5569 5568 5568 5567 5566 5566 5565 5564 5563 5562 5562 5561 5560 5560 5559 5558 5558 5557 5557 5556 5555 5554 5552 5550 5548 5546 5544 5542 5539 5536 5533 5530 5526 5523 5520 5517 5515 5513 5512 5510 5509 5509 5508 5507 5506 5506 5505 5505 5505 5505 5505 5504 5504 5504 5504 5504 5504 5504 5505 5505 5504 5504 5504 5503 5503 5503 5503 5504 5504 5504 5504 5505 5505 5506 5506 5507